"Pseudo-MPEC" for P10Os5v

Created 2019 Jun 15 19:09:22 UT using Find_Orb

Click here for an explanation of pseudo-MPECs

 
 Astrometry: 
     P10Os5v  C2019 03 25.34841 13 37 33.87 +49 05 12.3    ~66C7 21.4 GVNEOCPG96
     P10Os5v  C2019 03 25.35362 13 37 33.68 +49 05 14.4    ~66C7 21.1 GVNEOCPG96
     P10Os5v  C2019 03 25.35884 13 37 33.41 +49 05 18.9    ~66C7 21.8 GVNEOCPG96
     P10Os5v  C2019 03 25.36407 13 37 33.14 +49 05 21.9    ~66C7 22.1 GVNEOCPG96
     P10Os5v  C2019 04 16jT5k_40K@4*NFFwc+E#ft6oWIi6GYD6%*J5/kI9EQ`aH`81l]4XWF51
     P10Os5v  C2019 04 16%MiNpYO*$fcb6xq[d-$AUeYg1UCNZpq.AP8K.$4JnfuPB`0PR+)1F51
     P10Os5v  C2019 04 16rn(N70b.'K)WcT@Ahj5.f?Q*'D\2(G_v)g49Ov@T%R=YL^!pN/\GF51
     P10Os5v  C2019 04 16:bQAag.i5GeAstrometryr4y2=O,rT8igNh5VRK#Fh/BOvPew]^eF51
     P10Os5v  C2019 06 017J(f0TA#DbALQV(](_)pnKykUqV,TnqErT2).-,redacted;Ro'XF51
     P10Os5v  C2019 06 018`7tuDnC90nJHhH7v4t^uZkjaIESd6Md1qXfnrvbBle:4gQ0!%ovF51
     P10Os5v  C2019 06 01_`@!/?TsV(7ASpaB]*]XJdOKix!)8B*G;^uq@2mNclick\TPXlnvF51
     P10Os5v KC2019 06 03v,UnVsw\u]E3YO5u4dFTP9(gH2En[BDgQ8CJj%fe=fSv;BK)`r8jJ04
     P10Os5v KC2019 06 03etWg-#[By%/Pr,Tbft')`4%0+_J#w;hrrVYOherek!NK0XCp2_\-J04
     P10Os5v  C2019 06 04.28096 13 00 38.55 +41 18 55.4    ~647b       VNEOCPI52
     P10Os5v  C2019 06 04.28429 13 00 38.65 +41 18 51.7    ~647b       VNEOCPI52
     P10Os5v KC2019 06 06@eG/EI?P/j-`+uXW+7aQ85nysZ^UAXuig@l-JforUQW6,tmlfTC$291
     P10Os5v KC2019 06 06Dy[lxTL6cHn^7\X)i\_t9U0OWlo2it0h/Vfc(*peARw%uZoMsYM7291
     P10Os5v KC2019 06 06?rIbF3PUipKrxVCcQO;V%uNtHGTPJEIBn2h[CJ3;O+9+(W7XrG]G291
     P10Os5v ^C2019 06 13v1IC?ymdIi251mQ.qdIGJ=,RNwdE!GA3Jd,J2qMU]g+mO2y#\pdh695
     P10Os5v ^C2019 06 13xa-x,.y'uIl(MXST36pTu*xP]Uf-sT+5;explanation]uJ\#y_I695
     P10Os5v ^C2019 06 13'g'4un%F#daRnxbZ+[hjp*MlTcoSr5Cy#sG(?J]]e5QcQen3S8]]695

Station data:
(291) LPL/Spacewatch II  (N31.961669 W111.599905)  US/Arizona.  Observers J.
   V. Scotti, R. S. McMillan. 1.8-m f/2.7 reflector + CCD.
(695) Kitt Peak  (N31.958398 W111.594670)  US/Arizona.
(F51) Pan-STARRS 1, Haleakala  (N20.707235 W156.255910)  US/Hawaii.
   Observers N. Primak, A. Schultz, S. Watters, J. Thiel, T. Goggia. Measurer
   PS1 Science Consortium. 1.8-m Ritchey-Chrétien + CCD.
(G96) Mt. Lemmon Survey  (N32.442754 W110.788720)  US/Arizona.  Observers T.
   A. Pruyne, B. M. Africano, E. J. Christensen, G. A. Farneth, D. C. Fuls,
   A. R. Gibbs, A. D. Grauer, H. Groeller, J. A. Johnson, R. A. Kowalski, S.
   M. Larson, G. J. Leonard, R. L. Seaman, F. C. Shelly. 1.5-m reflector +
   10K CCD.
(I52) Steward Observatory, Mt. Lemmon Station  (N32.442547 W110.788920)
   US/Arizona.  Observers T. A. Pruyne, B. M. Africano, E. J. Christensen, G.
   A. Farneth, D. C. Fuls, A. R. Gibbs, A. D. Grauer, H. Groeller, J. A.
   Johnson, R. A. Kowalski, S. M. Larson, G. J. Leonard, R. L. Seaman, F. C.
   Shelly. 1.0-m reflector + CCD.
(J04) ESA Optical Ground Station, Tenerife  (N28.300924 W16.511830)  Canary
   Islands (Spain).  Observer D. Abreu. Measurers M. Micheli, D. Koschny, E.
   Schwab, M. Busch, A. Knöfel. 1.0-m f/4.4 reflector + CCD.

Orbital elements:  P10Os5v
   Perihelion 2019 Aug 23.495213 +/- 0.0159 TT = 11:53:06 (JD 2458718.995213)
Epoch 2019 Jun 13.0 TT = JDT 2458647.5                        AutoNEOCP
M 344.52455122 +/- 0.0020           (J2000 ecliptic)
n   0.21645433 +/- 2.45e-5          Peri.  124.83382 +/- 0.008
a   2.74720998 +/- 0.000207         Node   110.26335 +/- 0.0019
e   0.2386454 +/- 7.03e-5           Incl.   34.36941 +/- 0.00023
P   4.55                   H 18.0   G  0.15   U  5.6  
q 2.09160068 +/- 5.54e-5    Q 3.40281928 +/- 0.000446
From 21 observations 2019 Mar. 25-June 13; mean residual 0".29
Residuals in arcseconds: 
190325 G96  .28-  .38+    190416 F51  .17+  .01+    190604 I52  .50-  .15+    
190325 G96  .25+  .83-    190601 F51  .15+  .09-    190606 291  .10+  .19-    
190325 G96  .00   .36+    190601 F51  .09-  .09-    190606 291  .50+  .61+    
190325 G96  .24-  .04+    190601 F51  .11+  .02+    190606 291  .36-  .18-    
190416 F51  .05+  .05+    190603 J04  .17+  .29-    190613 695  .17+  .08-    
190416 F51  .23+  .15+    190603 J04  .15+  .24-    190613 695  .17+  .25+    
190416 F51  .03+  .02-    190604 I52  .78-  .08-    190613 695  .18+  .17+    

Ephemerides (geocentric):
Date (UTC) HH   RA              Dec         delta   r     elong  mag " sig PA
---- -- -- --  -------------   -----------  ------ ------ -----  --- ---- ---
2019 06 15 19  13 07 00.317   +37 23 48.17  1.8244 2.1289  92.7 22.2 .181 159
2019 06 15 20  13 07 02.053   +37 22 54.94  1.8246 2.1289  92.6 22.2 .182 159
2019 06 15 21  13 07 03.792   +37 22 01.69  1.8249 2.1288  92.6 22.2 .182 159
2019 06 15 22  13 07 05.533   +37 21 08.42  1.8251 2.1288  92.6 22.2 .183 159
2019 06 15 23  13 07 07.276   +37 20 15.15  1.8254 2.1287  92.6 22.2 .184 159
2019 06 16 00  13 07 09.022   +37 19 21.86  1.8256 2.1287  92.6 22.2 .185 159
2019 06 16 01  13 07 10.770   +37 18 28.55  1.8259 2.1286  92.6 22.2 .186 159
2019 06 16 02  13 07 12.521   +37 17 35.23  1.8261 2.1286  92.5 22.2 .187 159
2019 06 16 03  13 07 14.274   +37 16 41.90  1.8264 2.1285  92.5 22.2 .188 159
2019 06 16 04  13 07 16.029   +37 15 48.56  1.8266 2.1285  92.5 22.2 .189 159
2019 06 16 05  13 07 17.787   +37 14 55.20  1.8269 2.1285  92.5 22.2 .190 159
2019 06 16 06  13 07 19.547   +37 14 01.83  1.8271 2.1284  92.5 22.2 .191 159
2019 06 16 07  13 07 21.309   +37 13 08.45  1.8274 2.1284  92.5 22.2 .192 159
2019 06 16 08  13 07 23.074   +37 12 15.05  1.8276 2.1283  92.4 22.2 .193 159
2019 06 16 09  13 07 24.841   +37 11 21.64  1.8279 2.1283  92.4 22.2 .194 159
2019 06 16 10  13 07 26.610   +37 10 28.21  1.8281 2.1282  92.4 22.2 .195 159
2019 06 16 11  13 07 28.382   +37 09 34.77  1.8284 2.1282  92.4 22.2 .196 159
2019 06 16 12  13 07 30.156   +37 08 41.32  1.8286 2.1281  92.4 22.2 .197 159
2019 06 16 13  13 07 31.932   +37 07 47.86  1.8289 2.1281  92.3 22.2 .198 159
2019 06 16 14  13 07 33.711   +37 06 54.38  1.8291 2.1281  92.3 22.2 .199 159
2019 06 16 15  13 07 35.492   +37 06 00.89  1.8294 2.1280  92.3 22.2 .200 159
2019 06 16 16  13 07 37.276   +37 05 07.39  1.8296 2.1280  92.3 22.2 .201 159
2019 06 16 17  13 07 39.062   +37 04 13.87  1.8299 2.1279  92.3 22.2 .202 159
2019 06 16 18  13 07 40.850   +37 03 20.34  1.8301 2.1279  92.3 22.2 .203 159
2019 06 16 19  13 07 42.640   +37 02 26.80  1.8304 2.1278  92.2 22.2 .204 159
2019 06 16 20  13 07 44.433   +37 01 33.24  1.8306 2.1278  92.2 22.2 .205 159
2019 06 16 21  13 07 46.228   +37 00 39.67  1.8309 2.1278  92.2 22.2 .206 159
2019 06 16 22  13 07 48.025   +36 59 46.09  1.8312 2.1277  92.2 22.2 .207 159
2019 06 16 23  13 07 49.825   +36 58 52.49  1.8314 2.1277  92.2 22.2 .208 159
2019 06 17 00  13 07 51.627   +36 57 58.88  1.8317 2.1276  92.2 22.2 .209 159
2019 06 17 01  13 07 53.432   +36 57 05.26  1.8319 2.1276  92.1 22.2 .210 159
2019 06 17 02  13 07 55.239   +36 56 11.63  1.8322 2.1275  92.1 22.2 .211 159
2019 06 17 03  13 07 57.048   +36 55 17.98  1.8324 2.1275  92.1 22.2 .212 159
2019 06 17 04  13 07 58.859   +36 54 24.32  1.8327 2.1275  92.1 22.2 .213 159
2019 06 17 05  13 08 00.673   +36 53 30.65  1.8329 2.1274  92.1 22.2 .214 159
2019 06 17 06  13 08 02.489   +36 52 36.96  1.8332 2.1274  92.0 22.2 .215 159
2019 06 17 07  13 08 04.307   +36 51 43.26  1.8334 2.1273  92.0 22.2 .216 159
2019 06 17 08  13 08 06.128   +36 50 49.55  1.8337 2.1273  92.0 22.2 .217 159
2019 06 17 09  13 08 07.951   +36 49 55.82  1.8339 2.1272  92.0 22.2 .218 159
2019 06 17 10  13 08 09.776   +36 49 02.09  1.8342 2.1272  92.0 22.2 .219 159
2019 06 17 11  13 08 11.603   +36 48 08.33  1.8344 2.1271  92.0 22.2 .220 159
2019 06 17 12  13 08 13.433   +36 47 14.57  1.8347 2.1271  91.9 22.2 .221 159
2019 06 17 13  13 08 15.266   +36 46 20.79  1.8349 2.1271  91.9 22.2 .222 159
2019 06 17 14  13 08 17.100   +36 45 27.01  1.8352 2.1270  91.9 22.2 .223 159
2019 06 17 15  13 08 18.937   +36 44 33.20  1.8354 2.1270  91.9 22.2 .224 159
2019 06 17 16  13 08 20.776   +36 43 39.39  1.8357 2.1269  91.9 22.2 .225 159
2019 06 17 17  13 08 22.617   +36 42 45.56  1.8359 2.1269  91.9 22.2 .226 159
2019 06 17 18  13 08 24.461   +36 41 51.72  1.8362 2.1268  91.8 22.2 .227 159